Regional Weather Roundup
Issued by NWS Green Bay, WI

Home | Current Version | Previous Version | Text Only | Print | Product List | Glossary On
Versions: 1 2 3 4 5 6 7 8 9 10 11 12 13 14 15 16 17 18 19 20 21 22 23 24 25 26 27 28 29 30 31 32 33 34 35 36 37 38 39 40 41 42 43 44 45 46 47 48 49 50
000
ASUS43 KGRB 250911
RWRGRB

NORTH-CENTRAL AND NORTHEAST WISCONSIN REGIONAL WEATHER ROUNDUP
NATIONAL WEATHER SERVICE GREEN BAY WI
400 AM CDT MON JUL 25 2016

WIZ005-009-010>012-018-019-251000-
NORTH CENTRAL WISCONSIN

CITY           SKY/WX    TMP DP  RH WIND       PRES   REMARKS
IRONWOOD       CLEAR     63  61  94 W6        29.92R
MANITOWISH WTR PTCLDY    62  62 100 W6        29.95S
ARBOR VITAE    CLEAR     63  61  92 W3        29.96R
EAGLE RIVER    CLEAR     64  60  87 W7        29.95R
LAND O LAKES   CLEAR     63  59  88 CALM      29.95R
RHINELANDER    CLEAR     61  58  90 W8        29.97R
PHILLIPS       CLEAR     61  60  97 CALM      29.98R
ANTIGO         CLEAR     61  60  97 CALM      29.97R
TOMAHAWK       CLEAR     60  58  94 W3        29.98R
MERRILL        CLEAR     63  62  98 W6        29.98R
$$

WIZ013-073-251000-
NORTHEAST WISCONSIN

CITY           SKY/WX    TMP DP  RH WIND       PRES   REMARKS
IRON MOUNTAIN  CLEAR     66  60  81 W7        29.88S
MARINETTE        N/A    N/A N/A N/A MISG        N/A
OCONTO         CLEAR     66  66 100 W5        29.89S
$$

WIZ017-030-035>037-045-251000-
CENTRAL WISCONSIN

CITY           SKY/WX    TMP DP  RH WIND       PRES   REMARKS
MEDFORD        CLEAR     63  63 100 W6        29.98S
WAUSAU         CLEAR     65  62  90 NW9       29.95S
MOSINEE        CLEAR     63  63 100 W8        29.98S
MARSHFIELD     CLEAR     64  60  87 W8        29.98S
WISC RAPIDS    CLEAR     68  61  78 W8        29.98S
STEVENS POINT  CLEAR     65  62  87 W6        29.97S
WAUPACA        CLEAR     68  66  91 W5        29.95S
SHAWANO        CLEAR     67  62  82 W6        29.93S
CLINTONVILLE   CLEAR     64  61  88 W3        29.93S
WAUTOMA        CLEAR     65  63  93 W5        29.97S
$$

WIZ038-039-048-051-251000-
FOX VALLEY

CITY           SKY/WX    TMP DP  RH WIND       PRES   REMARKS
NWS GREEN BAY  CLEAR     66  65  96 W6        29.92S
APPLETON       PTCLDY    64  63  94 W8        29.94R
OSHKOSH        PTCLDY    69  63  81 W6        29.95R
FOND DU LAC    MOCLDY    70  64  81 W6        29.96R
$$

WIZ022-050-052-251000-
EAST CENTRAL WISCONSIN

CITY           SKY/WX    TMP DP  RH WIND       PRES   REMARKS
EPHRAIM        FAIR      68  65  92 W3        29.88S
WASHINGTON ISL NOT AVBL
STURGEON BAY   PTCLDY    68  65  90 SW5       29.91R
MANITOWOC      CLOUDY    71  63  75 W6        29.93R
SHEBOYGAN      CLOUDY    70  65  84 W6        29.93S
$$

LMZ563-521-522-541>543-251000-
LAKESHORE

STATION/POSITION TIME  TEMP    WIND        PRES    VSBY  WAVE
                       AIR SEA DIR/SP/G                  HT/PER
                 (UTC) (F)     (DEG/KT/KT) (MB)    (MI)  (FT/S)
SHEBOYGAN LKSHOR 0900   73     280/  9/ 11 1013.3F
KEWAUNEE LKSHORE 0800   72     300/  5/  8 1012.1R
NORTHPORT PIER   0800   70     260/  3/  5 1011.2S
N MID LAKE BUOY  0850   69 68  220/  8/  8 1010.3R         2/ 6
CHAMBERS ISLAND  0800   70     220/  5/  7 1011.5S
MENOMINEE LKSHOR 0800   72     250/  6/ 10 1011.0S
$$




USA.gov is the U.S. government's official web portal to all federal, state and local government web resources and services.